This is the latest recevied weather packets stored in our database for station/object DO7FJK-87. If no packets are shown the sender has not sent any weather packets the latest 1 day(s).
| Time | Temp. | Humidity | Pressure | Rain* | Wind** | Luminosity | Snow |
|---|---|---|---|---|---|---|---|
| 1778012401 | 8.33° C | 84% | - | - | 0 m/s | - | - |
| 1778011800 | 8.33° C | 84% | - | - | 0 m/s | - | - |
| 1778011200 | 8.89° C | 84% | - | - | 0 m/s | - | - |
| 1778010001 | 8.89° C | 83% | - | - | 0 m/s | - | - |
| 1778009401 | 9.44° C | 83% | - | - | 0 m/s | - | - |
| 1778008800 | 9.44° C | 82% | - | - | 0 m/s | - | - |
| 1778008200 | 9.44° C | 82% | - | - | 0 m/s | - | - |
| 1778007600 | 9.44° C | 81% | - | - | 1.79 m/s, 0° | - | - |
| 1778007001 | 10° C | 79% | - | - | 1.79 m/s, 0° | - | - |
| 1778006400 | 10° C | 78% | - | - | 0 m/s | - | - |
| 1778005801 | 10.56° C | 78% | - | - | 0.89 m/s, 0° | - | - |
| 1778005200 | 10.56° C | 77% | - | - | 1.79 m/s, 0° | - | - |
| 1778004601 | 11.11° C | 75% | - | - | 1.79 m/s, 0° | - | - |
| 1778004001 | 11.67° C | 74% | - | - | 2.24 m/s, 0° | - | - |
| 1778003400 | 11.67° C | 76% | - | - | 1.79 m/s, 0° | - | - |
| 1778002800 | 12.22° C | 75% | - | - | 2.24 m/s, 0° | - | - |
| 1778002200 | 12.22° C | 74% | - | - | 2.24 m/s, 0° | - | - |
| 1778001600 | 12.78° C | 75% | - | - | 1.79 m/s, 0° | - | - |
| 1778001000 | 12.78° C | 73% | - | - | 2.68 m/s, 0° | - | - |
| 1778000401 | 13.33° C | 73% | - | - | 2.24 m/s, 0° | - | - |
| 1777999800 | 13.89° C | 73% | - | - | 2.24 m/s, 0° | - | - |
| 1777999201 | 13.33° C | 75% | - | - | 1.79 m/s, 0° | - | - |
| 1777998600 | 13.33° C | 75% | - | - | 1.79 m/s, 0° | - | - |
| 1777998000 | 13.33° C | 76% | - | - | 1.79 m/s, 0° | - | - |
| 1777997400 | 13.33° C | 75% | - | - | 1.79 m/s, 0° | - | - |
* Rain since midnight (hover to see other rain measurements)
** Current wind speed in m/s (hover to see current wind gust speed)